QPF
0.06 0.07 0.06 0.07 0.08 0.07 0.08 0.09 0.09 0.06 0.05 0.04 0.02 0.02 0.02 0.02 0.03 0.03 0.03 0.01 0.00 0.00 0.01 0.00 0.00 0.00 0.00 0.00 0.00 0.01 0.01 0.01 0.03 0.03 0.02 0.02 0.02 0.02
0.05 0.06 0.06 0.05 0.07 0.06 0.07 0.08 0.08 0.07 0.05 0.04 0.03 0.02 0.02 0.01 0.02 0.03 0.04 0.03 0.02 0.01 0.01 0.01 0.01 0.00 0.01 0.01 0.01 0.01 0.01 0.01 0.01 0.02 0.02 0.02 0.02 0.02
0.03 0.04 0.04 0.05 0.05 0.05 0.05 0.05 0.04 0.04 0.04 0.03 0.04 0.03 0.02 0.03 0.03 0.03 0.03 0.03 0.02 0.01 0.01 0.00 0.00 0.01 0.01 0.01 0.01 0.01 0.01 0.00 0.00 0.00 0.01 0.01 0.01 0.02
0.03 0.03 0.03 0.04 0.06 0.05 0.04 0.04 0.04 0.04 0.04 0.04 0.04 0.04 0.03 0.04 0.03 0.03 0.03 0.04 0.03 0.03 0.02 0.01 0.01 0.01 0.01 0.01 0.01 0.01 0.00 0.00 0.00 0.00 0.00 0.01 0.01 0.01
0.03 0.03 0.03 0.03 0.05 0.05 0.05 0.04 0.03 0.03 0.03 0.04 0.03 0.03 0.02 0.03 0.02 0.02 0.02 0.03 0.03 0.03 0.02 0.01 0.01 0.00 0.00 0.00 0.00 0.00 0.00 0.01 0.01 0.00 0.01 0.01 0.01 0.01
0.03 0.03 0.03 0.03 0.04 0.05 0.04 0.03 0.03 0.03 0.03 0.04 0.05 0.05 0.05 0.05 0.04 0.03 0.03 0.03 0.03 0.03 0.03 0.02 0.01 0.01 0.00 0.00 0.01 0.01 0.01 0.01 0.00 0.00 0.01 0.01 0.01 0.01
0.03 0.03 0.03 0.03 0.03 0.03 0.02 0.02 0.03 0.03 0.03 0.03 0.04 0.04 0.05 0.05 0.05 0.06 0.06 0.07 0.07 0.05 0.04 0.03 0.01 0.01 0.01 0.01 0.01 0.01 0.01 0.01 0.01 0.01 0.01 0.01 0.01 0.01
0.03 0.03 0.03 0.03 0.02 0.02 0.02 0.02 0.03 0.03 0.03 0.03 0.03 0.02 0.03 0.05 0.06 0.06 0.06 0.08 0.08 0.06 0.06 0.05 0.03 0.02 0.01 0.01 0.01 0.01 0.01 0.01 0.01 0.01 0.01 0.01 0.01 0.01
0.03 0.03 0.03 0.03 0.02 0.02 0.03 0.03 0.02 0.02 0.03 0.03 0.03 0.03 0.04 0.05 0.06 0.05 0.05 0.05 0.05 0.04 0.06 0.06 0.05 0.04 0.03 0.02 0.01 0.01 0.00 0.00 0.00 0.00 0.01 0.01 0.01 0.01
0.03 0.04 0.03 0.03 0.03 0.04 0.04 0.04 0.03 0.02 0.03 0.03 0.03 0.03 0.04 0.05 0.05 0.05 0.06 0.06 0.05 0.05 0.04 0.04 0.04 0.04 0.03 0.03 0.03 0.02 0.01 0.00 0.00 0.00 0.01 0.01 0.01 0.01
0.03 0.03 0.03 0.03 0.03 0.04 0.04 0.05 0.04 0.03 0.03 0.03 0.03 0.03 0.03 0.04 0.04 0.04 0.04 0.04 0.05 0.04 0.05 0.05 0.05 0.05 0.05 0.04 0.03 0.03 0.01 0.01 0.01 0.01 0.01 0.01 0.01 0.02
0.06 0.05 0.04 0.04 0.03 0.03 0.04 0.05 0.05 0.03 0.03 0.02 0.02 0.02 0.02 0.03 0.03 0.04 0.04 0.05 0.04 0.04 0.05 0.06 0.06 0.07 0.06 0.04 0.04 0.04 0.03 0.02 0.01 0.01 0.01 0.01 0.01 0.01
0.10 0.07 0.05 0.04 0.04 0.04 0.04 0.04 0.04 0.04 0.03 0.03 0.02 0.02 0.02 0.02 0.02 0.02 0.03 0.05 0.05 0.04 0.06 0.07 0.06 0.06 0.06 0.05 0.05 0.05 0.06 0.05 0.03 0.02 0.01 0.01 0.01 0.02
0.12 0.10 0.07 0.06 0.05 0.04 0.04 0.03 0.04 0.05 0.04 0.04 0.04 0.03 0.02 0.02 0.02 0.02 0.03 0.04 0.06 0.06 0.08 0.07 0.06 0.06 0.08 0.08 0.07 0.08 0.08 0.07 0.06 0.04 0.03 0.03 0.03 0.02
0.08 0.11 0.10 0.07 0.06 0.04 0.04 0.03 0.04 0.05 0.05 0.05 0.04 0.04 0.03 0.03 0.03 0.03 0.03 0.04 0.04 0.05 0.05 0.05 0.05 0.05 0.07 0.07 0.08 0.09 0.10 0.08 0.07 0.06 0.05 0.05 0.04 0.03
0.04 0.07 0.08 0.07 0.07 0.06 0.05 0.04 0.04 0.04 0.04 0.04 0.04 0.04 0.04 0.04 0.04 0.04 0.04 0.05 0.05 0.05 0.06 0.07 0.06 0.06 0.08 0.07 0.08 0.10 0.10 0.09 0.08 0.08 0.07 0.05 0.04 0.03
0.03 0.04 0.05 0.07 0.09 0.09 0.08 0.07 0.08 0.07 0.05 0.04 0.05 0.05 0.05 0.05 0.04 0.05 0.06 0.06 0.06 0.06 0.07 0.07 0.07 0.07 0.08 0.09 0.10 0.09 0.09 0.09 0.09 0.09 0.07 0.06 0.06 0.05
0.03 0.04 0.04 0.05 0.05 0.06 0.08 0.10 0.08 0.08 0.08 0.08 0.08 0.06 0.06 0.06 0.05 0.06 0.06 0.07 0.06 0.06 0.06 0.07 0.07 0.06 0.07 0.08 0.08 0.08 0.08 0.09 0.09 0.09 0.09 0.08 0.08 0.08
0.03 0.03 0.04 0.04 0.04 0.05 0.07 0.09 0.07 0.06 0.06 0.06 0.07 0.07 0.07 0.07 0.07 0.08 0.08 0.08 0.07 0.06 0.07 0.08 0.10 0.10 0.08 0.06 0.04 0.04 0.06 0.07 0.08 0.07 0.07 0.07 0.08 0.08
0.03 0.04 0.05 0.06 0.06 0.06 0.06 0.07 0.06 0.05 0.06 0.07 0.06 0.06 0.07 0.07 0.08 0.10 0.10 0.09 0.07 0.06 0.06 0.07 0.09 0.10 0.11 0.08 0.07 0.06 0.05 0.05 0.06 0.06 0.06 0.06 0.06 0.07
0.04 0.04 0.05 0.06 0.07 0.07 0.08 0.07 0.06 0.05 0.04 0.04 0.04 0.04 0.05 0.07 0.08 0.10 0.11 0.11 0.10 0.08 0.07 0.07 0.07 0.08 0.09 0.09 0.07 0.06 0.06 0.06 0.06 0.06 0.05 0.05 0.04 0.05
0.04 0.05 0.05 0.05 0.05 0.06 0.07 0.08 0.08 0.07 0.05 0.04 0.03 0.04 0.04 0.04 0.04 0.05 0.06 0.07 0.08 0.09 0.08 0.07 0.08 0.09 0.08 0.08 0.07 0.07 0.06 0.05 0.05 0.06 0.05 0.04 0.03 0.03
0.05 0.06 0.06 0.05 0.05 0.05 0.06 0.07 0.08 0.08 0.07 0.06 0.05 0.04 0.04 0.04 0.03 0.04 0.05 0.05 0.05 0.05 0.06 0.06 0.06 0.06 0.06 0.07 0.07 0.08 0.09 0.06 0.05 0.04 0.04 0.04 0.03 0.03
MSLP
1008.72 1009.10 1009.50 1009.90 1010.26 1010.56 1010.76 1010.86 1010.83 1010.71 1010.49 1010.23 1009.95 1009.71 1009.54 1009.46 1009.50 1009.66 1009.92 1010.27 1010.67 1011.09 1011.50 1011.88 1012.23 1012.52 1012.78 1013.00 1013.20 1013.39 1013.58 1013.76 1013.93 1014.09 1014.24 1014.35 1014.44 1014.51
1007.78 1008.10 1008.45 1008.82 1009.16 1009.46 1009.69 1009.83 1009.87 1009.82 1009.69 1009.51 1009.31 1009.12 1008.97 1008.90 1008.91 1009.02 1009.22 1009.50 1009.84 1010.22 1010.61 1010.99 1011.35 1011.68 1011.99 1012.26 1012.51 1012.75 1012.97 1013.17 1013.36 1013.53 1013.69 1013.82 1013.93 1014.02
1006.91 1007.17 1007.47 1007.78 1008.09 1008.38 1008.62 1008.80 1008.91 1008.94 1008.91 1008.82 1008.70 1008.58 1008.46 1008.39 1008.38 1008.43 1008.55 1008.74 1009.00 1009.31 1009.65 1010.01 1010.38 1010.75 1011.11 1011.46 1011.78 1012.08 1012.35 1012.60 1012.83 1013.02 1013.20 1013.35 1013.49 1013.61
1006.18 1006.37 1006.60 1006.85 1007.11 1007.37 1007.61 1007.81 1007.97 1008.08 1008.15 1008.16 1008.13 1008.07 1008.00 1007.94 1007.90 1007.89 1007.93 1008.02 1008.18 1008.40 1008.68 1009.02 1009.39 1009.79 1010.21 1010.63 1011.04 1011.42 1011.77 1012.09 1012.36 1012.60 1012.81 1012.99 1013.16 1013.32
1005.60 1005.72 1005.88 1006.06 1006.26 1006.47 1006.69 1006.90 1007.10 1007.27 1007.41 1007.51 1007.57 1007.59 1007.57 1007.53 1007.47 1007.41 1007.37 1007.37 1007.44 1007.57 1007.79 1008.08 1008.45 1008.88 1009.35 1009.85 1010.34 1010.81 1011.25 1011.64 1011.98 1012.28 1012.53 1012.76 1012.97 1013.17
1005.16 1005.23 1005.31 1005.42 1005.54 1005.70 1005.87 1006.07 1006.27 1006.48 1006.68 1006.86 1007.00 1007.09 1007.13 1007.12 1007.06 1006.98 1006.89 1006.82 1006.80 1006.86 1007.02 1007.27 1007.63 1008.07 1008.59 1009.15 1009.72 1010.28 1010.80 1011.28 1011.69 1012.05 1012.36 1012.63 1012.89 1013.12
1004.82 1004.83 1004.85 1004.88 1004.93 1005.00 1005.12 1005.27 1005.46 1005.67 1005.91 1006.14 1006.35 1006.52 1006.62 1006.66 1006.63 1006.55 1006.44 1006.34 1006.27 1006.28 1006.39 1006.61 1006.95 1007.41 1007.95 1008.56 1009.20 1009.83 1010.43 1010.98 1011.47 1011.89 1012.26 1012.58 1012.86 1013.13
1004.53 1004.48 1004.43 1004.39 1004.35 1004.34 1004.37 1004.45 1004.59 1004.79 1005.03 1005.30 1005.55 1005.79 1005.96 1006.07 1006.10 1006.06 1005.98 1005.89 1005.82 1005.81 1005.89 1006.10 1006.43 1006.89 1007.45 1008.09 1008.77 1009.46 1010.12 1010.73 1011.27 1011.75 1012.16 1012.52 1012.83 1013.12
1004.23 1004.13 1004.02 1003.88 1003.75 1003.64 1003.57 1003.57 1003.63 1003.78 1003.99 1004.26 1004.55 1004.84 1005.09 1005.28 1005.39 1005.44 1005.43 1005.39 1005.36 1005.37 1005.47 1005.68 1006.02 1006.48 1007.05 1007.70 1008.41 1009.12 1009.82 1010.47 1011.05 1011.56 1012.01 1012.39 1012.73 1013.02
1003.91 1003.75 1003.55 1003.33 1003.10 1002.88 1002.69 1002.58 1002.54 1002.61 1002.77 1003.01 1003.31 1003.64 1003.96 1004.23 1004.45 1004.61 1004.70 1004.76 1004.82 1004.90 1005.05 1005.30 1005.65 1006.13 1006.70 1007.36 1008.07 1008.80 1009.51 1010.17 1010.77 1011.30 1011.76 1012.15 1012.49 1012.78
1003.56 1003.33 1003.05 1002.74 1002.40 1002.06 1001.75 1001.51 1001.36 1001.33 1001.41 1001.60 1001.88 1002.22 1002.59 1002.95 1003.27 1003.55 1003.77 1003.96 1004.14 1004.33 1004.56 1004.87 1005.28 1005.78 1006.37 1007.03 1007.74 1008.46 1009.16 1009.82 1010.41 1010.94 1011.39 1011.78 1012.11 1012.39
1003.24 1002.92 1002.56 1002.15 1001.70 1001.25 1000.82 1000.45 1000.18 1000.02 1000.00 1000.12 1000.35 1000.68 1001.07 1001.49 1001.91 1002.30 1002.66 1002.99 1003.31 1003.63 1003.98 1004.38 1004.85 1005.39 1006.01 1006.68 1007.38 1008.08 1008.77 1009.41 1009.99 1010.50 1010.93 1011.30 1011.62 1011.88
1002.98 1002.59 1002.14 1001.64 1001.09 1000.53 999.99 999.51 999.11 998.84 998.71 998.72 998.89 999.18 999.56 1000.01 1000.49 1000.98 1001.46 1001.92 1002.37 1002.83 1003.31 1003.81 1004.37 1004.97 1005.62 1006.30 1007.00 1007.70 1008.36 1008.97 1009.52 1010.01 1010.42 1010.77 1011.06 1011.31
1002.82 1002.36 1001.84 1001.27 1000.66 1000.02 999.39 998.81 998.31 997.92 997.68 997.60 997.67 997.89 998.23 998.67 999.18 999.72 1000.28 1000.86 1001.43 1002.01 1002.60 1003.22 1003.86 1004.53 1005.22 1005.93 1006.63 1007.31 1007.95 1008.54 1009.07 1009.52 1009.91 1010.23 1010.51 1010.75
1002.77 1002.26 1001.70 1001.10 1000.45 999.77 999.09 998.45 997.88 997.41 997.07 996.89 996.86 996.99 997.26 997.65 998.14 998.69 999.30 999.94 1000.59 1001.27 1001.96 1002.66 1003.38 1004.12 1004.85 1005.58 1006.29 1006.96 1007.59 1008.15 1008.65 1009.08 1009.45 1009.75 1010.02 1010.25
1002.79 1002.27 1001.71 1001.11 1000.47 999.80 999.13 998.48 997.88 997.36 996.96 996.69 996.57 996.60 996.78 997.09 997.52 998.04 998.63 999.29 999.98 1000.71 1001.46 1002.23 1003.00 1003.78 1004.54 1005.29 1006.00 1006.66 1007.27 1007.82 1008.30 1008.71 1009.07 1009.37 1009.64 1009.88
1002.83 1002.33 1001.81 1001.26 1000.69 1000.08 999.46 998.85 998.28 997.76 997.33 997.00 996.81 996.75 996.83 997.05 997.39 997.83 998.38 999.00 999.69 1000.42 1001.18 1001.97 1002.76 1003.55 1004.33 1005.07 1005.77 1006.43 1007.02 1007.55 1008.01 1008.42 1008.77 1009.08 1009.36 1009.63
1002.81 1002.37 1001.93 1001.47 1001.00 1000.50 999.99 999.47 998.97 998.50 998.08 997.75 997.51 997.38 997.37 997.49 997.73 998.09 998.55 999.10 999.73 1000.42 1001.16 1001.92 1002.69 1003.47 1004.22 1004.94 1005.61 1006.24 1006.80 1007.31 1007.77 1008.17 1008.54 1008.87 1009.17 1009.47
1002.68 1002.32 1001.98 1001.65 1001.30 1000.95 1000.57 1000.18 999.79 999.40 999.05 998.73 998.48 998.31 998.25 998.28 998.43 998.69 999.06 999.52 1000.07 1000.69 1001.36 1002.07 1002.79 1003.50 1004.20 1004.87 1005.50 1006.08 1006.62 1007.10 1007.55 1007.95 1008.33 1008.68 1009.02 1009.36
1002.43 1002.17 1001.93 1001.71 1001.51 1001.29 1001.07 1000.82 1000.56 1000.29 1000.01 999.75 999.53 999.36 999.26 999.24 999.32 999.50 999.78 1000.16 1000.62 1001.16 1001.74 1002.36 1003.00 1003.63 1004.26 1004.85 1005.41 1005.94 1006.43 1006.88 1007.31 1007.71 1008.10 1008.48 1008.86 1009.23
1002.12 1001.92 1001.77 1001.66 1001.57 1001.48 1001.39 1001.28 1001.14 1000.98 1000.80 1000.62 1000.44 1000.30 1000.20 1000.16 1000.21 1000.34 1000.56 1000.86 1001.25 1001.70 1002.20 1002.73 1003.28 1003.82 1004.35 1004.86 1005.34 1005.79 1006.22 1006.63 1007.04 1007.43 1007.83 1008.23 1008.64 1009.04
1001.81 1001.66 1001.57 1001.52 1001.50 1001.51 1001.51 1001.49 1001.45 1001.39 1001.30 1001.19 1001.07 1000.97 1000.90 1000.88 1000.92 1001.03 1001.22 1001.49 1001.82 1002.21 1002.64 1003.09 1003.55 1004.00 1004.44 1004.86 1005.25 1005.63 1005.99 1006.36 1006.73 1007.11 1007.51 1007.92 1008.34 1008.76
1001.64 1001.49 1001.41 1001.38 1001.38 1001.42 1001.46 1001.49 1001.51 1001.50 1001.47 1001.41 1001.35 1001.30 1001.27 1001.28 1001.35 1001.47 1001.67 1001.92 1002.23 1002.59 1002.97 1003.36 1003.75 1004.13 1004.49 1004.82 1005.14 1005.44 1005.75 1006.06 1006.39 1006.75 1007.14 1007.54 1007.96 1008.38
Thickness
5753 5751 5749 5751 5750 5749 5747 5744 5737 5734 5737 5741 5742 5745 5742 5741 5737 5736 5735 5732 5730 5728 5727 5725 5723 5722 5720 5719 5718 5716 5715 5713 5712 5711 5711 5710 5709 5709
5751 5749 5747 5749 5749 5748 5746 5743 5741 5736 5734 5740 5739 5741 5738 5738 5734 5733 5732 5729 5727 5725 5724 5722 5721 5719 5717 5716 5714 5713 5711 5710 5709 5708 5707 5707 5706 5705
5750 5748 5746 5745 5746 5746 5745 5742 5740 5737 5733 5736 5738 5737 5733 5732 5731 5730 5730 5728 5727 5723 5721 5719 5718 5716 5714 5712 5711 5709 5707 5706 5705 5704 5703 5702 5701 5701
5747 5746 5744 5744 5742 5741 5741 5739 5738 5736 5732 5729 5731 5731 5729 5728 5727 5726 5727 5727 5725 5721 5718 5716 5715 5713 5711 5709 5707 5705 5703 5702 5701 5700 5699 5698 5696 5695
5745 5743 5742 5740 5738 5738 5736 5736 5735 5735 5732 5729 5728 5728 5726 5726 5723 5723 5723 5721 5722 5719 5716 5713 5711 5709 5707 5706 5704 5702 5700 5698 5696 5695 5693 5692 5691 5690
5743 5741 5739 5737 5735 5733 5733 5731 5731 5729 5728 5726 5725 5724 5722 5722 5719 5718 5718 5718 5718 5718 5714 5711 5708 5706 5705 5703 5701 5698 5696 5694 5692 5690 5688 5687 5686 5685
5739 5738 5736 5733 5730 5728 5729 5728 5726 5724 5723 5722 5720 5719 5719 5716 5715 5716 5714 5714 5714 5714 5712 5709 5707 5705 5703 5700 5697 5695 5692 5690 5688 5686 5684 5682 5681 5680
5733 5732 5731 5729 5725 5722 5720 5719 5718 5717 5717 5716 5716 5714 5713 5713 5711 5711 5710 5708 5706 5710 5706 5706 5706 5704 5703 5700 5696 5692 5689 5686 5683 5681 5679 5678 5676 5675
5727 5725 5726 5726 5721 5720 5715 5711 5710 5710 5709 5710 5711 5710 5709 5708 5705 5704 5703 5702 5702 5705 5702 5701 5702 5700 5699 5697 5692 5688 5685 5682 5679 5677 5675 5673 5671 5670
5720 5719 5717 5716 5716 5712 5710 5708 5707 5706 5704 5704 5705 5705 5705 5703 5699 5698 5697 5697 5697 5698 5697 5694 5696 5695 5694 5691 5686 5683 5680 5677 5674 5672 5670 5668 5666 5665
5714 5713 5711 5709 5705 5702 5700 5700 5699 5700 5699 5697 5697 5696 5694 5693 5692 5691 5691 5689 5690 5692 5693 5690 5690 5688 5687 5686 5682 5678 5675 5672 5670 5667 5665 5663 5661 5659
5707 5706 5702 5700 5696 5693 5693 5693 5691 5692 5692 5691 5689 5689 5689 5688 5685 5684 5685 5684 5684 5685 5688 5683 5683 5680 5678 5681 5679 5675 5670 5667 5665 5662 5660 5658 5656 5655
5700 5699 5697 5690 5687 5684 5683 5685 5684 5683 5684 5684 5684 5685 5684 5683 5682 5681 5680 5679 5679 5680 5683 5678 5676 5674 5671 5671 5672 5671 5668 5665 5661 5657 5654 5653 5651 5649
5690 5691 5688 5681 5678 5675 5675 5675 5674 5673 5677 5678 5678 5678 5677 5677 5677 5676 5674 5673 5673 5674 5673 5671 5669 5666 5664 5663 5663 5664 5662 5660 5658 5655 5651 5647 5644 5643
5681 5678 5675 5671 5669 5669 5666 5665 5665 5669 5671 5672 5672 5672 5671 5671 5669 5667 5666 5665 5665 5666 5666 5663 5662 5661 5658 5657 5657 5656 5655 5654 5652 5650 5647 5644 5641 5639
5671 5668 5665 5664 5662 5662 5661 5661 5662 5664 5664 5664 5664 5665 5664 5663 5661 5660 5658 5657 5657 5658 5658 5656 5654 5653 5651 5651 5649 5647 5646 5645 5645 5642 5640 5639 5637 5634
5660 5660 5661 5660 5659 5659 5658 5658 5657 5656 5656 5656 5655 5655 5655 5655 5654 5653 5651 5649 5648 5648 5648 5648 5646 5644 5643 5641 5639 5639 5638 5637 5636 5633 5630 5630 5630 5629
5649 5654 5655 5653 5652 5651 5650 5649 5648 5648 5648 5648 5647 5646 5646 5646 5646 5646 5644 5642 5641 5641 5640 5639 5637 5634 5632 5633 5631 5631 5630 5629 5627 5625 5623 5622 5621 5621
5643 5647 5646 5645 5644 5643 5643 5641 5640 5639 5638 5638 5637 5637 5636 5636 5636 5636 5635 5634 5634 5634 5633 5632 5629 5626 5624 5624 5624 5622 5622 5620 5618 5616 5615 5614 5614 5614
5640 5640 5639 5637 5635 5633 5633 5632 5631 5630 5628 5627 5627 5627 5627 5626 5626 5626 5626 5625 5625 5625 5625 5624 5622 5620 5618 5617 5616 5615 5612 5612 5610 5608 5608 5607 5605 5604
5633 5632 5631 5629 5628 5625 5623 5622 5621 5620 5619 5618 5617 5617 5617 5617 5617 5616 5616 5614 5614 5615 5615 5615 5614 5610 5610 5608 5606 5607 5606 5603 5601 5599 5598 5597 5597 5596
5626 5624 5622 5621 5619 5616 5614 5613 5612 5611 5611 5610 5609 5608 5608 5607 5607 5607 5607 5607 5606 5607 5607 5606 5604 5602 5600 5599 5598 5598 5596 5594 5591 5589 5588 5588 5588 5589
5618 5616 5614 5612 5609 5607 5605 5604 5603 5603 5603 5602 5601 5600 5600 5599 5599 5599 5599 5599 5598 5597 5597 5597 5596 5594 5593 5593 5592 5591 5589 5587 5586 5583 5582 5580 5579 5579